Flag for Hungary Weather past 2 weeks in Debrecen, Hungary

Now
43 °F

Passing clouds.


Feels Like: 38 °F
Forecast: 39 / 49 °F
Wind: 8 mph from South

Location: Debrecen Airport

Current Time: Dec 19, 2014 at 7:21:41 PM

Latest Report: Dec 19, 2014 at 4:45 PM


Visibility: 5 mi

Pressure: 30.07 "Hg

Humidity: 93%

Dew point: 41 °F

Location of DebrecenLocation

Historic Weather in Debrecen — Graph

°F

Debrecen temperature yesterday

Maximum temperature yesterday: 43 °F (at 1:15 PM)
Minimum temperature yesterday: 34 °F (at 5:15 AM)
Average temperature yesterday: 38 °F

Past Weeks' High & Low Weather Summary

 TemperatureHumidityPressure
High52 °F (Dec 5, 2:15 PM)100% (Dec 5, 5:15 AM)30.21 "Hg (Dec 5, 5:15 AM)
Low27 °F (Dec 13, 5:45 AM)58% (Dec 16, 11:45 AM)29.83 "Hg (Dec 17, 5:15 AM)
Average41 °F86%30.08 "Hg
* Reported Dec 4 4:15 PM — Dec 19 4:45 PM, Debrecen, Weather by CustomWeather, © 2014

Note: Actual official high and low records may vary slightly from our data, if they occured in-between our weather recording intervals... More about our weather records

Advertising

Debrecen weather history for previous 24 hours

 ConditionsComfort  
Time TempWeatherWind HumidityBarometerVisibility
4:45 PM
Dec 19
43 °FPassing clouds.8 mph93%30.07 "Hg5 mi
4:15 PM43 °FPassing clouds.8 mph93%30.07 "Hg5 mi
3:45 PM45 °FPassing clouds.9 mph87%30.07 "Hg5 mi
3:15 PM45 °FPartly sunny.12 mph93%30.07 "Hg5 mi
2:45 PM45 °FPartly sunny.12 mph93%30.07 "Hg5 mi
2:15 PM45 °FPartly sunny.12 mph93%30.07 "HgN/A
1:45 PM46 °FLow clouds.13 mph87%30.07 "HgN/A
1:15 PM46 °FPartly sunny.17 mph87%30.07 "Hg5 mi
12:45 PM45 °FBroken clouds.14 mph87%30.07 "Hg5 mi
12:15 PM45 °FScattered clouds.15 mph87%30.07 "Hg4 mi
11:45 AM45 °FMore clouds than sun.15 mph87%30.07 "Hg4 mi
11:15 AM43 °FOvercast.13 mph93%30.09 "Hg4 mi
10:45 AM43 °FOvercast.13 mph93%30.09 "Hg4 mi
10:15 AM43 °FOvercast.15 mph93%30.09 "Hg4 mi
9:45 AM43 °FOvercast.17 mph93%30.09 "Hg4 mi
9:15 AM43 °FOvercast.17 mph93%30.09 "Hg4 mi
8:45 AM41 °FOvercast.13 mph100%30.09 "Hg4 mi
8:15 AM41 °FLight rain. Overcast.18 mph100%30.09 "Hg4 mi
7:45 AM41 °FLight rain. Overcast.16 mph100%30.09 "Hg4 mi
6:45 AM41 °FLight rain. Mostly cloudy.14 mph100%30.09 "Hg5 mi
6:15 AM41 °FLight rain. Mostly cloudy.14 mph100%30.09 "HgN/A
5:45 AM41 °FLight rain. Mostly cloudy.14 mph100%30.09 "HgN/A
5:15 AM41 °FLight rain. Mostly cloudy.12 mph100%30.09 "HgN/A
Weather by CustomWeather, © 2014

See weather overviewHow to use our weather pages